CEB962 RPMD-RPLL

Flight info

Callsign CEB962
Flight time N/A
Altitude 36000
Route ANKIN3R ANKIN B473 LAIYA LAIYA1A
Aircraft A320/M-SDE3FGHIRWY/LB1

Departure

Time N/A
Airport Francisco Bangoy International Airport (RPMD)

Arrival

Time 2026-05-01 12:28
Airport Ninoy Aquino International Airport (RPLL)
Time Latitude Longitude Altitude Speed Heading
2026-05-01 12:04 13.23343 121.63196 31740 ft 443 kts 324°
2026-05-01 12:04 13.25778 121.61495 31218 ft 440 kts 324°
2026-05-01 12:05 13.27157 121.60531 30919 ft 439 kts 324°
2026-05-01 12:05 13.32158 121.57021 29863 ft 432 kts 324°
2026-05-01 12:05 13.34630 121.55285 29347 ft 428 kts 325°
2026-05-01 12:06 13.37076 121.53570 28837 ft 425 kts 325°
2026-05-01 12:06 13.39512 121.51863 28344 ft 421 kts 325°
2026-05-01 12:06 13.41922 121.50176 27858 ft 417 kts 325°
2026-05-01 12:06 13.44313 121.48503 27382 ft 414 kts 325°
2026-05-01 12:07 13.46680 121.46846 26920 ft 410 kts 325°
2026-05-01 12:07 13.49029 121.45200 26454 ft 406 kts 326°
2026-05-01 12:07 13.51348 121.43571 25993 ft 403 kts 326°
2026-05-01 12:07 13.53654 121.41951 25519 ft 400 kts 326°
2026-05-01 12:08 13.55942 121.40341 25039 ft 397 kts 326°
2026-05-01 12:08 13.58212 121.38744 24561 ft 394 kts 326°
2026-05-01 12:08 13.60469 121.37164 24091 ft 391 kts 326°
2026-05-01 12:08 13.62688 121.35621 23613 ft 388 kts 327°
2026-05-01 12:09 13.64919 121.34077 23136 ft 385 kts 327°
2026-05-01 12:09 13.67135 121.32543 22660 ft 383 kts 327°
2026-05-01 12:09 13.69338 121.31016 22183 ft 381 kts 327°
2026-05-01 12:09 13.71521 121.29496 21709 ft 379 kts 327°
2026-05-01 12:10 13.73702 121.27977 21243 ft 377 kts 327°
2026-05-01 12:10 13.78021 121.24967 20312 ft 373 kts 327°
2026-05-01 12:10 13.80164 121.23472 19852 ft 371 kts 327°
2026-05-01 12:11 13.84416 121.20505 18943 ft 367 kts 327°
2026-05-01 12:11 13.86527 121.19035 18497 ft 365 kts 327°
2026-05-01 12:11 13.88627 121.17572 18048 ft 364 kts 327°
2026-05-01 12:12 13.90720 121.16111 17603 ft 362 kts 327°
2026-05-01 12:12 13.92800 121.14655 17159 ft 361 kts 327°
2026-05-01 12:12 13.94916 121.13279 16714 ft 358 kts 335°
2026-05-01 12:12 13.97229 121.12384 16288 ft 353 kts 348°
2026-05-01 12:13 13.99632 121.11908 15859 ft 351 kts 352°
2026-05-01 12:13 14.02027 121.11457 15441 ft 349 kts 352°
2026-05-01 12:13 14.04402 121.11009 15024 ft 347 kts 352°
2026-05-01 12:13 14.06774 121.10563 14606 ft 345 kts 352°
2026-05-01 12:14 14.09121 121.10117 14200 ft 343 kts 352°
2026-05-01 12:14 14.11457 121.09673 13819 ft 339 kts 352°
2026-05-01 12:14 14.13763 121.09233 13451 ft 336 kts 352°
2026-05-01 12:14 14.16051 121.08797 13048 ft 334 kts 352°
2026-05-01 12:15 14.18328 121.08363 12636 ft 332 kts 352°
2026-05-01 12:15 14.20593 121.07931 12221 ft 330 kts 352°
2026-05-01 12:15 14.22842 121.07502 11806 ft 328 kts 352°
2026-05-01 12:15 14.25070 121.07078 11546 ft 320 kts 352°
2026-05-01 12:16 14.27220 121.06668 11297 ft 309 kts 352°
2026-05-01 12:16 14.29316 121.06268 10650 ft 305 kts 352°
2026-05-01 12:16 14.31375 121.05876 10143 ft 296 kts 352°
2026-05-01 12:16 14.33371 121.05496 9735 ft 291 kts 352°
2026-05-01 12:17 14.35363 121.05114 9322 ft 291 kts 352°
2026-05-01 12:17 14.37357 121.04736 8911 ft 291 kts 352°
2026-05-01 12:17 14.39349 121.04359 8487 ft 291 kts 351°
2026-05-01 12:17 14.41337 121.03979 8067 ft 290 kts 351°
2026-05-01 12:18 14.43323 121.03601 7627 ft 290 kts 351°
2026-05-01 12:18 14.45303 121.03226 7186 ft 290 kts 351°
2026-05-01 12:18 14.47283 121.02850 6730 ft 289 kts 351°
2026-05-01 12:18 14.49153 121.02219 6318 ft 285 kts 333°
2026-05-01 12:19 14.50691 121.00973 6042 ft 269 kts 312°
2026-05-01 12:19 14.51672 120.99448 5882 ft 251 kts 295°
2026-05-01 12:19 14.52271 120.97790 5462 ft 244 kts 290°
2026-05-01 12:19 14.52827 120.96139 5072 ft 243 kts 290°
2026-05-01 12:20 14.53377 120.94499 4765 ft 241 kts 290°
2026-05-01 12:20 14.53920 120.92874 4447 ft 239 kts 290°
2026-05-01 12:20 14.54459 120.91257 4134 ft 237 kts 290°
2026-05-01 12:20 14.54996 120.89647 3814 ft 236 kts 290°
2026-05-01 12:21 14.55530 120.88050 3498 ft 235 kts 290°
2026-05-01 12:21 14.56065 120.86457 3194 ft 235 kts 290°
2026-05-01 12:21 14.56593 120.84879 2918 ft 232 kts 290°
2026-05-01 12:21 14.57112 120.83332 2765 ft 224 kts 291°
2026-05-01 12:22 14.57822 120.81964 2632 ft 211 kts 314°
2026-05-01 12:22 14.58960 120.81106 2504 ft 198 kts 341°
2026-05-01 12:22 14.60276 120.80860 2400 ft 191 kts
2026-05-01 12:22 14.61543 120.81196 2324 ft 188 kts 30°
2026-05-01 12:23 14.62550 120.82030 2250 ft 186 kts 53°
2026-05-01 12:23 14.63138 120.83202 2171 ft 185 kts 76°
2026-05-01 12:23 14.63220 120.84511 2100 ft 184 kts 99°
2026-05-01 12:23 14.62786 120.85748 2027 ft 185 kts 122°
2026-05-01 12:24 14.62090 120.86866 1956 ft 185 kts 122°
2026-05-01 12:24 14.61402 120.87989 1879 ft 185 kts 121°
2026-05-01 12:24 14.60715 120.89114 1796 ft 185 kts 121°
2026-05-01 12:24 14.60029 120.90238 1716 ft 185 kts 122°
2026-05-01 12:25 14.59345 120.91357 1710 ft 185 kts 122°
2026-05-01 12:25 14.57996 120.93565 1734 ft 169 kts 121°
2026-05-01 12:25 14.57294 120.94484 1599 ft 161 kts 130°
2026-05-01 12:26 14.56578 120.95331 1350 ft 153 kts 130°
2026-05-01 12:26 14.55257 120.96972 972 ft 143 kts 127°
2026-05-01 12:26 14.54663 120.97784 792 ft 142 kts 126°
2026-05-01 12:27 14.54073 120.98588 591 ft 140 kts 129°
2026-05-01 12:27 14.52951 120.99799 259 ft 141 kts 136°
2026-05-01 12:28 14.51652 121.01143 69 ft 92 kts 135°
2026-05-01 12:28 14.51411 121.01388 68 ft 27 kts 133°
2026-05-01 12:28 14.51342 121.01508 68 ft 6 kts 53°
2026-05-01 12:29 14.51391 121.01544 60 ft 10 kts
2026-05-01 12:29 14.51459 121.01481 68 ft 16 kts 315°
2026-05-01 12:29 14.51598 121.01339 69 ft 12 kts 314°
2026-05-01 12:30 14.51706 121.01228 69 ft 10 kts 315°
2026-05-01 12:30 14.51762 121.01170 64 ft 12 kts 315°
2026-05-01 12:30 14.51819 121.01111 64 ft 11 kts 315°
2026-05-01 12:31 14.51870 121.01058 69 ft 10 kts 314°
2026-05-01 12:31 14.51917 121.01010 69 ft 10 kts 316°
2026-05-01 12:31 14.51982 121.00944 69 ft 16 kts 315°
2026-05-01 12:31 14.52065 121.00858 68 ft 16 kts 315°
2026-05-01 12:32 14.52141 121.00781 66 ft 12 kts 315°
2026-05-01 12:32 14.52124 121.00682 68 ft 10 kts 236°
2026-05-01 12:32 14.52154 121.00612 67 ft 13 kts 317°
2026-05-01 12:33 14.52224 121.00545 68 ft 15 kts 317°
2026-05-01 12:33 14.52300 121.00466 68 ft 16 kts 314°
2026-05-01 12:33 14.52378 121.00386 68 ft 12 kts 314°
2026-05-01 12:33 14.52428 121.00337 69 ft 9 kts 317°
2026-05-01 12:34 14.52467 121.00299 69 ft 4 kts 313°
2026-05-01 12:34 14.52470 121.00272 69 ft 4 kts 262°
2026-05-01 12:34 14.52467 121.00246 69 ft 4 kts 266°
2026-05-01 12:34 14.52466 121.00228 69 ft 1 kts 266°
2026-05-01 12:35 14.52466 121.00226 69 ft 0 kts 266°